Location: Angwan Shehu
(11.2514°N, 7.4613°E)
Time: 07:19:43
(UTC+00:00)

SR - Pass Details

Date: 19 April 2021
Orbit: 573 x 882 km, 66.7° (Epoch: 12 May)

Event Time Altitude Azimuth Distance (km) Brightness Sun altitude
Rises 05:31:34 0° 189° (S) 3,069 ? 2.7°
Reaches altitude 10° 05:33:52 10° 184° (S) 2,200 ? 3.3°
Maximum altitude 05:38:45 51° 108° (ESE) 960 ? 4.5°
Drops below altitude 10° 05:44:04 10° 34° (NNE) 2,396 ? 5.7°
Sets 05:46:40 0° 29° (NNE) 3,369 ? 6.4°
